Weather reports worldwide

Advertisment
Magdeburg, Germany (10361): temperature & dewpoint: 12.10.2018 03:00:00 - 18.10.2018 03:00:00 (CEST)Magdeburg, Germany (10361): temperature 5cm & temperature -5cm: 12.10.2018 03:00:00 - 18.10.2018 03:00:00 (CEST)Magdeburg, Germany (10361): temperature -20cm & temperature -100cm: 12.10.2018 03:00:00 - 18.10.2018 03:00:00 (CEST)Magdeburg, Germany (10361): wind speed & gusts: 12.10.2018 03:00:00 - 18.10.2018 03:00:00 (CEST)Magdeburg, Germany (10361): wind direction: 12.10.2018 03:00:00 - 18.10.2018 03:00:00 (CEST)Magdeburg, Germany (10361): reduced air pressure: 12.10.2018 03:00:00 - 18.10.2018 03:00:00 (CEST)Magdeburg, Germany (10361): visibility: 12.10.2018 03:00:00 - 18.10.2018 03:00:00 (CEST)Magdeburg, Germany (10361): sunshine duration: 12.10.2018 03:00:00 - 18.10.2018 03:00:00 (CEST)Magdeburg, Germany (10361): precipitation: 12.10.2018 03:00:00 - 18.10.2018 03:00:00 (CEST)
Date & Time tt [°C] td [°C] tt 5cm [°C] tt -5cm [°C] tt -20cm [°C] tt -100cm [°C] ff [km/h] ff [kn] fx [km/h] fx [kn] dd ppp [hPa] vv [km] sd [min] rr [mm]
18.10.2018 03:00:00 8,9 7,7 5,5 10,4 14,8 14,7 3 2 7 4 WNW 1019,7 2,3 0 0,0
18.10.2018 02:00:00 10,2 8,4 6,0 10,9 15,0 14,7 3 2 7 4 NW 1019,8 3,0 0 0,0
18.10.2018 01:00:00 9,4 7,9 5,9 11,3 15,3 14,7 4 2 7 4 WNW 1019,9 4,1 0 0,0
18.10.2018 00:00:00 10,0 8,3 6,7 11,9 15,6 14,6 3 2 5 3 WNW 1019,7 5 0 0,0
17.10.2018 23:00:00 11,1 9,2 7,2 12,5 15,9 14,6 4 2 5 3 NW 1019,7 6 0 0,0
17.10.2018 22:00:00 11,6 9,6 7,8 13,3 16,2 14,6 3 1 4 2 WSW 1019,8 7 0 0,0
17.10.2018 21:00:00 12,2 9,7 8,3 14,2 16,5 14,6 2 1 6 3 NW 1019,5 7 0 0,0
17.10.2018 20:00:00 14,2 10,6 9,9 15,3 16,6 14,6 4 2 5 3 ENE 1019,1 10 0 0,0
17.10.2018 19:00:00 15,6 11,0 11,3 16,9 16,7 14,6 0 0 4 2 N 1018,6 15 0 0,0
17.10.2018 18:00:00 18,6 11,2 16,2 19,3 16,5 14,6 3 1 8 5 N 1018,3 16 38 0,0
17.10.2018 17:00:00 21,9 10,5 22,6 21,4 16,1 14,6 0 0 9 5 N 1018,1 15 60 0,0
17.10.2018 16:00:00 21,7 9,9 24,0 22,6 15,6 14,6 4 2 10 5 N 1018,2 14 60 0,0
17.10.2018 15:00:00 21,9 9,4 24,2 22,7 15,1 14,6 3 2 10 5 NE 1018,3 14 60 0,0
17.10.2018 14:00:00 21,4 9,0 24,5 22,7 14,5 14,6 2 1 9 5 NNW 1018,6 15 60 0,0
17.10.2018 13:00:00 19,8 11,1 24,7 21,0 14,1 14,6 4 2 8 5 NNE 1019,0 8 60 0,0
17.10.2018 12:00:00 18,0 11,8 22,3 18,4 13,8 14,6 4 2 8 4 ENE 1019,5 6 60 0,0
17.10.2018 11:00:00 16,8 11,9 18,6 15,5 13,7 14,6 2 1 7 4 NNW 1019,6 6 60 0,0
17.10.2018 10:00:00 13,9 11,1 14,8 12,5 13,8 14,6 2 1 5 3 NW 1019,6 6 34 0,0
17.10.2018 09:00:00 10,6 9,6 9,0 10,6 14,0 14,6 2 1 6 4 NNE 1019,9 4,5 0 0,0
17.10.2018 08:00:00 9,8 8,9 6,0 10,3 14,2 14,6 1 1 3 2 NW 1019,7 3,1 0 0,0
17.10.2018 07:00:00 10,7 9,5 6,7 10,8 14,4 14,6 1 0 9 5 N 1019,3 3,8 0 0,0
17.10.2018 06:00:00 11,1 9,8 8,0 11,2 14,6 14,6 5 3 9 5 WNW 1019,0 4,5 0 0,0
17.10.2018 05:00:00 10,8 9,6 7,7 11,5 14,8 14,6 4 2 10 5 WNW 1019,0 5 0 0,0
17.10.2018 04:00:00 11,7 10,0 7,9 12,4 15,0 14,6 3 2 5 3 W 1019,1 8 0 0,0
17.10.2018 03:00:00 12,6 10,4 10,6 13,1 15,1 14,6 0 0 6 3 N 1019,2 11 0 0,0
17.10.2018 02:00:00 13,4 10,6 10,6 13,4 15,3 14,6 3 2 7 4 NW 1019,2 12 0 0,0
17.10.2018 01:00:00 13,9 10,0 12,0 13,8 15,5 14,6 4 2 10 6 WNW 1019,2 12 0 0,0
17.10.2018 00:00:00 14,7 9,5 11,7 14,2 15,6 14,6 4 2 9 5 WNW 1019,4 15 0 0,0
16.10.2018 23:00:00 13,5 8,9 11,6 14,4 15,8 14,6 3 2 6 3 WNW 1019,5 11 0 0,0
16.10.2018 22:00:00 13,7 9,0 11,7 14,6 16,0 14,6 5 3 8 4 WNW 1019,4 13 0 0,0
16.10.2018 21:00:00 14,5 9,2 11,3 15,2 16,2 14,6 4 2 7 4 W 1019,4 13 0 0,0
16.10.2018 20:00:00 15,8 10,0 12,9 16,2 16,3 14,6 3 2 5 3 S 1019,3 15 0 0,0
16.10.2018 19:00:00 16,9 9,7 13,0 16,9 16,2 14,6 4 2 5 3 SSW 1019,0 19 0 0,0
16.10.2018 18:00:00 19,5 9,7 17,8 19,1 16,0 14,6 3 1 9 5 E 1018,4 21 38 0,0
16.10.2018 17:00:00 22,3 8,3 23,4 21,4 15,6 14,6 4 2 15 8 N 1018,1 23 60 0,0
16.10.2018 16:00:00 22,4 7,6 25,5 22,8 15,0 14,6 8 4 16 9 N 1018,1 24 60 0,0
16.10.2018 15:00:00 22,0 7,0 26,7 22,6 14,4 14,6 5 3 14 8 NNE 1018,2 18 60 0,0
16.10.2018 14:00:00 20,5 6,9 24,4 21,0 14,0 14,6 5 3 11 6 N 1018,3 17 60 0,0
16.10.2018 13:00:00 18,6 7,2 20,7 18,0 13,7 14,6 2 1 8 4 WNW 1018,5 16 27 0,0
16.10.2018 12:00:00 16,7 7,2 17,9 16,5 13,5 14,6 2 1 6 3 N 1018,6 16 6 0,0
16.10.2018 11:00:00 14,8 7,3 15,4 14,0 13,4 14,6 2 1 4 2 ESE 1018,3 14 0 0,0
16.10.2018 10:00:00 12,6 7,1 12,6 12,3 13,5 14,6 0 0 8 4 N 1018,1 11 0 0,0
16.10.2018 09:00:00 11,6 6,9 11,0 11,5 13,5 14,6 3 2 8 5 NNW 1017,9 15 0 0,0
16.10.2018 08:00:00 11,0 6,7 9,6 11,2 13,6 14,6 3 2 9 5 NNW 1017,6 16 0 0,0
16.10.2018 07:00:00 10,7 7,1 9,4 11,1 13,7 14,6 0 0 5 3 N 1017,1 17 0 0,0
16.10.2018 06:00:00 10,9 6,5 9,5 11,0 13,9 14,6 4 2 10 5 E 1017,0 17 0 0,0
16.10.2018 05:00:00 10,1 5,6 9,3 10,7 14,1 14,6 5 3 15 8 NW 1016,5 18 0 0,0
16.10.2018 04:00:00 9,7 6,2 7,7 10,4 14,3 14,6 4 2 11 6 WNW 1016,0 17 0 0,0
16.10.2018 03:00:00 9,1 6,3 6,5 10,4 14,6 14,6 2 1 5 3 E 1016,4 18 0 0,0
16.10.2018 02:00:00 8,7 6,1 5,2 10,5 14,9 14,6 0 0 8 4 N 1016,5 18 0 0,0
16.10.2018 01:00:00 9,4 6,3 5,7 11,0 15,2 14,6 4 2 7 4 NNW 1016,1 18 0 0,0
16.10.2018 00:00:00 10,1 6,7 5,7 11,6 15,5 14,6 3 1 5 3 E 1015,9 20 0 0,0
15.10.2018 23:00:00 11,2 7,0 6,7 12,4 15,8 14,6 3 1 6 3 NNE 1015,8 23 0 0,0
15.10.2018 22:00:00 12,6 7,8 8,0 13,4 16,1 14,6 5 3 8 5 E 1015,7 29 0 0,0
15.10.2018 21:00:00 13,5 7,8 8,9 14,2 16,3 14,6 4 2 7 4 ESE 1015,8 32 0 0,0
15.10.2018 20:00:00 14,6 8,1 9,7 15,4 16,5 14,6 3 2 7 4 E 1015,5 28 0 0,0
15.10.2018 19:00:00 16,8 8,1 11,7 17,1 16,5 14,6 4 2 11 6 ESE 1015,2 38 0 0,0
15.10.2018 18:00:00 21,5 7,3 19,7 19,6 16,2 14,6 6 3 25 14 SE 1014,6 38 58 0,0
15.10.2018 17:00:00 23,0 6,7 23,6 21,7 15,8 14,6 14 7 24 13 SE 1014,1 41 60 0,0
15.10.2018 16:00:00 23,9 6,8 25,1 22,8 15,2 14,6 11 6 23 13 SSE 1013,9 28 60 0,0
15.10.2018 15:00:00 23,6 7,0 26,1 23,2 14,6 14,6 9 5 21 11 SE 1013,9 34 60 0,0
15.10.2018 14:00:00 23,0 7,3 25,5 22,5 14,0 14,6 8 5 21 12 SE 1014,0 43 60 0,0
15.10.2018 13:00:00 21,1 7,5 23,7 20,5 13,5 14,6 6 4 18 10 SSE 1014,3 27 60 0,0
15.10.2018 12:00:00 18,6 7,2 21,2 17,8 13,2 14,6 8 5 16 9 SE 1014,7 30 60 0,0
15.10.2018 11:00:00 16,6 6,8 18,6 14,6 13,1 14,5 9 5 17 9 SE 1014,7 31 60 0,0
15.10.2018 10:00:00 13,9 6,4 14,9 11,1 13,2 14,5 9 5 17 9 SE 1014,8 23 60 0,0
15.10.2018 09:00:00 11,1 6,1 9,3 9,2 13,4 14,5 8 5 14 8 SE 1014,5 25 42 0,0
15.10.2018 08:00:00 10,2 5,8 7,6 9,1 13,7 14,5 7 4 16 9 SSE 1014,2 21 0 0,0
15.10.2018 07:00:00 9,8 6,2 7,4 9,1 13,9 14,5 8 4 11 6 SE 1014,0 18 0 0,0
15.10.2018 06:00:00 10,9 6,4 7,6 9,8 14,2 14,5 7 4 16 9 SSE 1013,8 20 0 0,0
15.10.2018 05:00:00 11,0 6,7 8,5 9,9 14,4 14,5 8 5 13 7 SSE 1013,8 18 0 0,0
15.10.2018 04:00:00 11,1 6,8 6,2 10,4 14,7 14,5 6 3 14 8 SE 1013,9 19 0 0,0
15.10.2018 03:00:00 12,8 6,9 10,2 11,1 14,9 14,5 7 4 16 9 SE 1013,6 21 0 0,0
15.10.2018 02:00:00 13,0 6,8 9,9 11,5 15,2 14,5 7 4 16 9 SSE 1013,4 17 0 0,0
15.10.2018 01:00:00 13,8 6,9 10,6 12,0 15,5 14,5 8 5 16 9 SSE 1013,1 20 0 0,0
15.10.2018 00:00:00 13,2 6,9 7,6 12,5 15,7 14,5 7 4 11 6 S 1013,2 21 0 0,0
14.10.2018 23:00:00 15,7 7,2 12,9 13,5 16,0 14,5 9 5 18 10 SE 1013,1 24 0 0,0
14.10.2018 22:00:00 16,8 7,2 14,3 14,0 16,2 14,5 10 6 16 9 SSE 1013,0 26 0 0,0
14.10.2018 21:00:00 17,4 7,2 14,4 14,8 16,4 14,5 8 5 15 8 SSE 1013,1 25 0 0,0
14.10.2018 20:00:00 18,0 7,7 14,1 15,6 16,6 14,5 8 4 14 7 SSE 1013,1 29 0 0,0
14.10.2018 19:00:00 18,0 8,8 13,4 17,3 16,6 14,5 5 3 11 6 ESE 1013,2 28 2 0,0
14.10.2018 18:00:00 22,2 7,8 19,3 19,6 16,4 14,5 4 2 19 10 SSE 1013,2 37 60 0,0
14.10.2018 17:00:00 23,2 7,7 23,4 21,5 16,0 14,5 12 7 32 17 SSE 1013,0 30 60 0,0
14.10.2018 16:00:00 22,8 7,5 24,3 22,6 15,5 14,5 14 7 32 18 SSE 1013,1 30 60 0,0
14.10.2018 15:00:00 23,0 7,6 25,1 23,1 14,8 14,5 12 7 28 15 SE 1013,3 30 60 0,0
14.10.2018 14:00:00 23,1 7,5 25,1 22,5 14,3 14,5 14 7 29 16 SSE 1013,5 28 60 0,0
14.10.2018 13:00:00 21,6 8,0 23,7 20,4 13,8 14,5 15 8 31 17 SSE 1014,0 22 60 0,0
14.10.2018 12:00:00 19,1 8,2 21,2 17,7 13,5 14,4 13 7 30 16 SSE 1014,4 18 60 0,0
14.10.2018 11:00:00 15,9 8,1 17,6 14,7 13,5 14,4 13 7 25 14 SSE 1014,9 12 60 0,0
14.10.2018 10:00:00 13,8 8,1 14,9 11,5 13,6 14,4 9 5 19 10 SSE 1015,4 11 60 0,0
14.10.2018 09:00:00 11,0 7,3 9,5 9,6 13,8 14,4 8 4 16 9 SE 1015,6 9 44 0,0
14.10.2018 08:00:00 10,2 7,1 8,4 9,4 14,1 14,4 9 5 17 9 SSE 1015,8 9 0 0,0
14.10.2018 07:00:00 10,1 7,1 7,9 9,7 14,3 14,4 8 4 14 7 SSE 1016,0 9 0 0,0
14.10.2018 06:00:00 10,8 7,2 8,2 10,1 14,6 14,4 7 4 15 8 SSE 1016,6 10 0 0,0
14.10.2018 05:00:00 11,6 7,3 9,5 10,6 14,9 14,4 9 5 21 11 SE 1016,8 12 0 0,0
14.10.2018 04:00:00 11,2 7,2 7,8 10,9 15,2 14,4 6 3 14 7 SSE 1017,4 13 0 0,0
14.10.2018 03:00:00 12,4 7,4 9,9 11,5 15,5 14,4 8 4 16 8 SSE 1017,7 15 0 0,0
14.10.2018 02:00:00 12,4 7,5 8,2 11,9 15,8 14,4 6 4 14 8 SSE 1018,3 16 0 0,0
14.10.2018 01:00:00 14,1 7,8 11,0 12,8 16,1 14,4 8 5 15 8 SE 1018,7 18 0 0,0
14.10.2018 00:00:00 14,7 7,5 11,1 13,6 16,4 14,4 8 4 21 11 SSE 1019,0 20 0 0,0
13.10.2018 23:00:00 16,6 7,5 14,3 14,6 16,7 14,4 11 6 22 12 SSE 1019,1 22 0 0,0
13.10.2018 22:00:00 17,6 7,4 14,7 15,4 16,9 14,4 9 5 22 12 SSE 1019,5 26 0 0,0
13.10.2018 21:00:00 19,2 7,4 16,7 16,3 17,1 14,4 9 5 19 10 SE 1019,7 29 0 0,0
13.10.2018 20:00:00 20,3 7,5 17,2 17,3 17,3 14,4 8 4 15 8 ESE 1020,1 25 0 0,0
13.10.2018 19:00:00 21,7 8,7 16,9 19,0 17,2 14,4 6 3 17 9 ESE 1019,9 32 5 0,0
13.10.2018 18:00:00 24,4 8,4 23,1 21,3 17,0 14,4 6 3 23 12 ESE 1020,1 50 60 0,0
13.10.2018 17:00:00 26,1 8,5 27,2 23,4 16,5 14,4 9 5 22 12 SE 1020,6 65 60 0,0
13.10.2018 16:00:00 26,5 7,9 27,9 24,7 15,9 14,4 11 6 26 14 SE 1021,0 55 60 0,0
13.10.2018 15:00:00 26,1 8,7 28,0 25,1 15,2 14,4 12 7 26 14 SSE 1021,4 38 60 0,0
13.10.2018 14:00:00 24,9 10,6 27,8 24,4 14,5 14,4 11 6 17 9 SE 1022,3 29 60 0,0
13.10.2018 13:00:00 22,9 10,6 25,7 22,4 14,0 14,4 9 5 17 9 SE 1023,1 27 60 0,0
13.10.2018 12:00:00 21,5 10,9 24,3 19,8 13,6 14,4 9 5 16 8 SE 1023,5 23 60 0,0
13.10.2018 11:00:00 18,7 10,4 21,7 16,5 13,4 14,4 6 3 14 8 SE 1023,8 18 60 0,0
13.10.2018 10:00:00 16,3 10,1 17,8 12,8 13,5 14,3 7 4 14 8 SE 1024,1 14 60 0,0
13.10.2018 09:00:00 13,0 9,6 10,5 10,4 13,7 14,3 7 4 10 6 SE 1024,2 12 47 0,0
13.10.2018 08:00:00 11,1 9,2 7,7 10,1 13,9 14,3 6 3 9 5 SE 1024,1 11 0 0,0
13.10.2018 07:00:00 10,9 9,0 7,1 10,3 14,2 14,3 4 2 9 5 SSE 1024,2 10 0 0,0
13.10.2018 06:00:00 11,5 9,2 8,0 10,6 14,4 14,3 5 3 10 5 ESE 1024,1 11 0 0,0
13.10.2018 05:00:00 12,0 9,4 7,6 10,9 14,7 14,3 4 2 8 5 SSE 1024,0 13 0 0,0
13.10.2018 04:00:00 12,3 9,5 7,5 11,3 14,9 14,3 5 3 8 4 SSE 1023,9 13 0 0,0
13.10.2018 03:00:00 12,4 9,6 7,9 11,8 15,2 14,3 5 3 9 5 SSE 1023,7 15 0 0,0
13.10.2018 02:00:00 13,1 10,3 8,2 12,4 15,5 14,3 5 3 8 4 SE 1023,8 18 0 0,0
13.10.2018 01:00:00 13,4 10,7 9,1 12,9 15,8 14,3 4 2 7 4 SSE 1023,8 19 0 0,0
13.10.2018 00:00:00 14,1 10,8 9,6 13,6 16,1 14,3 4 2 8 4 S 1023,7 21 0 0,0
12.10.2018 23:00:00 15,2 11,1 11,2 14,3 16,3 14,3 5 3 8 4 SSW 1023,7 28 0 0,0
12.10.2018 22:00:00 16,7 11,2 12,0 15,2 16,6 14,3 4 2 11 6 S 1023,5 30 0 0,0
12.10.2018 21:00:00 17,3 11,4 12,2 16,1 16,8 14,3 5 3 9 5 S 1023,3 36 0 0,0
12.10.2018 20:00:00 18,6 11,2 13,0 17,4 16,9 14,3 4 2 10 5 SSE 1023,2 40 0 0,0
12.10.2018 19:00:00 22,1 10,9 17,3 19,3 16,8 14,3 8 4 19 10 S 1022,6 31 7 0,0
12.10.2018 18:00:00 24,8 10,9 22,8 21,7 16,5 14,3 10 5 21 11 S 1022,0 58 60 0,0
12.10.2018 17:00:00 26,4 10,6 26,6 23,7 16,0 14,3 10 5 23 12 S 1021,6 51 60 0,0
12.10.2018 16:00:00 27,0 10,1 28,4 25,0 15,3 14,3 10 5 21 11 SSE 1021,6 57 60 0,0
12.10.2018 15:00:00 26,7 9,0 28,9 25,2 14,5 14,3 11 6 22 12 ESE 1021,4 48 60 0,0
12.10.2018 14:00:00 26,3 9,2 28,3 24,5 13,7 14,3 9 5 17 9 SE 1021,5 41 60 0,0
12.10.2018 13:00:00 24,8 9,4 27,8 22,4 13,1 14,3 8 5 15 8 SSE 1021,8 35 60 0,0
12.10.2018 12:00:00 21,8 9,2 24,2 19,4 12,7 14,3 7 4 11 6 SSE 1021,9 22 60 0,0
12.10.2018 11:00:00 18,0 8,4 20,4 15,6 12,5 14,3 5 3 9 5 S 1021,9 15 60 0,0
12.10.2018 10:00:00 14,5 7,6 16,7 11,7 12,5 14,3 5 3 11 6 SE 1021,3 10 57 0,0
12.10.2018 09:00:00 11,3 7,1 9,7 9,3 12,7 14,3 4 2 11 6 SE 1020,5 10 49 0,0
12.10.2018 08:00:00 9,0 6,6 6,0 8,7 12,9 14,3 2 1 9 5 ESE 1020,2 8 0 0,0
12.10.2018 07:00:00 9,2 6,2 5,5 8,7 13,2 14,3 4 2 9 5 SSE 1019,6 9 0 0,0
12.10.2018 06:00:00 10,3 6,8 6,5 9,0 13,4 14,3 5 3 10 5 S 1018,9 11 0 0,0
12.10.2018 05:00:00 10,6 6,8 7,4 9,3 13,7 14,3 8 4 10 6 SSE 1018,3 12 0 0,0
12.10.2018 04:00:00 10,7 6,8 6,9 9,7 13,9 14,3 5 3 10 5 SSE 1018,3 13 0 0,0
12.10.2018 03:00:00 11,3 6,5 5,9 10,3 14,2 14,3 5 3 14 7 SSE 1017,7 16 0 0,0

tt = temperature
td = dewpoint
tt 5cm = temperature 5cm
tt -5cm = temperature -5cm
tt -20cm = temperature -20cm
tt -100cm = temperature -100cm
ff = wind speed
fx = gusts
dd = wind direction
ppp = reduced air pressure
vv = visibility
sd = sunshine duration
rr = precipitation

Next stations